| time (UTC) | temp C | wind direction | speed KPH | gust KPH | rain 1hr cm | rain 24hr cm | rain mn cm | humidity % | barometer mb |
| 20260509054556 | 20 | 331 | 0.0 | 4.8 | 0.00 | 0.00 | 0.00 | 64 | 1011.2 |
| 20260509053111 | 20 | 311 | 0.0 | 6.4 | 0.00 | 0.00 | 0.00 | 62 | 1011.1 |
| 20260509051606 | 21 | 306 | 3.2 | 4.8 | 0.00 | 0.00 | 0.00 | 60 | 1010.9 |
| 20260509050055 | 23 | 324 | 0.0 | 3.2 | 0.00 | 0.00 | 0.00 | 65 | 1011.1 |
| 20260509044555 | 24 | 17 | 0.0 | 0.0 | 0.00 | 0.00 | 0.00 | 65 | 1010.9 |
| 20260509043058 | 25 | 17 | 0.0 | 3.2 | 0.00 | 0.00 | 0.00 | 63 | 1010.9 |
| 20260509041555 | 25 | 246 | 1.6 | 8.0 | 0.00 | 0.00 | 0.00 | 65 | 1010.9 |
| 20260509034551 | 26 | 232 | 4.8 | 11.3 | 0.00 | 0.00 | 0.00 | 56 | 1010.6 |
| 20260509033110 | 26 | 212 | 6.4 | 12.9 | 0.00 | 0.00 | 0.00 | 54 | 1010.5 |
| 20260509031551 | 26 | 194 | 4.8 | 11.3 | 0.00 | 0.00 | 0.00 | 51 | 1010.4 |
| 20260509030049 | 26 | 219 | 6.4 | 12.9 | 0.00 | 0.00 | 0.00 | 51 | 1010.2 |
| 20260509024557 | 26 | 224 | 3.2 | 11.3 | 0.00 | 0.00 | 0.00 | 52 | 1010.1 |
| 20260509023048 | 26 | 223 | 4.8 | 9.7 | 0.00 | 0.00 | 0.00 | 53 | 1010.2 |
| 20260509021548 | 26 | 225 | 3.2 | 9.7 | 0.00 | 0.00 | 0.00 | 54 | 1010.0 |
| 20260509020059 | 26 | 264 | 3.2 | 9.7 | 0.00 | 0.00 | 0.00 | 53 | 1010.1 |
| 20260509014547 | 26 | 259 | 4.8 | 11.3 | 0.00 | 0.00 | 0.00 | 53 | 1010.0 |
| 20260509013046 | 27 | 270 | 4.8 | 11.3 | 0.00 | 0.00 | 0.00 | 54 | 1010.0 |
| 20260509011550 | 27 | 221 | 6.4 | 12.9 | 0.00 | 0.00 | 0.00 | 55 | 1010.0 |
| 20260509010045 | 27 | 260 | 6.4 | 14.5 | 0.00 | 0.00 | 0.00 | 54 | 1010.0 |
| 20260509004548 | 28 | 246 | 4.8 | 14.5 | 0.00 | 0.00 | 0.00 | 54 | 1010.0 |
| 20260509003049 | 29 | 236 | 8.0 | 14.5 | 0.00 | 0.00 | 0.00 | 51 | 1009.9 |
| 20260509001544 | 29 | 226 | 6.4 | 14.5 | 0.00 | 0.00 | 0.00 | 52 | 1009.9 |
| 20260509000043 | 30 | 236 | 9.7 | 14.5 | 0.00 | 0.00 | 0.00 | 50 | 1010.0 |
| 20260508234542 | 29 | 224 | 6.4 | 14.5 | 0.00 | 0.00 | 0.00 | 52 | 1010.0 |
| 20260508233045 | 30 | 246 | 8.0 | 17.7 | 0.00 | 0.00 | 0.00 | 52 | 1010.2 |
| 20260508231547 | 30 | 217 | 8.0 | 17.7 | 0.00 | 0.00 | 0.00 | 53 | 1010.2 |
| 20260508230043 | 30 | 246 | 8.0 | 19.3 | 0.00 | 0.00 | 0.00 | 55 | 1010.2 |
| 20260508224550 | 30 | 233 | 11.3 | 22.5 | 0.00 | 0.00 | 0.00 | 56 | 1010.4 |
| 20260508223041 | 30 | 202 | 14.5 | 24.1 | 0.00 | 0.00 | 0.00 | 54 | 1010.4 |
| 20260508221540 | 31 | 230 | 11.3 | 25.7 | 0.00 | 0.00 | 0.00 | 53 | 1010.3 |
| 20260508220046 | 31 | 221 | 9.7 | 16.1 | 0.00 | 0.00 | 0.00 | 52 | 1010.2 |
| 20260508214544 | 30 | 187 | 6.4 | 17.7 | 0.00 | 0.00 | 0.00 | 53 | 1010.1 |
| 20260508213040 | 29 | 134 | 6.4 | 25.7 | 0.00 | 0.00 | 0.00 | 55 | 1010.3 |
| 20260508211537 | 28 | 82 | 17.7 | 25.7 | 0.00 | 0.00 | 0.00 | 51 | 1010.2 |
| 20260508210037 | 28 | 103 | 17.7 | 30.6 | 0.00 | 0.00 | 0.00 | 53 | 1010.4 |
| 20260508204537 | 28 | 96 | 19.3 | 37.0 | 0.00 | 0.00 | 0.00 | 52 | 1010.5 |
| 20260508203036 | 28 | 105 | 22.5 | 35.4 | 0.00 | 0.00 | 0.00 | 56 | 1010.4 |
| 20260508201532 | 28 | 107 | 22.5 | 35.4 | 0.00 | 0.00 | 0.00 | 54 | 1010.5 |
| 20260508200033 | 28 | 78 | 22.5 | 35.4 | 0.00 | 0.00 | 0.00 | 56 | 1010.7 |
| 20260508194529 | 28 | 117 | 22.5 | 33.8 | 0.00 | 0.00 | 0.00 | 59 | 1011.0 |
| 20260508193027 | 28 | 81 | 24.1 | 35.4 | 0.00 | 0.00 | 0.00 | 57 | 1011.1 |
| 20260508191529 | 28 | 101 | 25.7 | 35.4 | 0.00 | 0.00 | 0.00 | 60 | 1011.3 |
| 20260508190024 | 28 | 95 | 24.1 | 37.0 | 0.00 | 0.00 | 0.00 | 58 | 1011.5 |
| 20260508184523 | 28 | 86 | 24.1 | 35.4 | 0.00 | 0.00 | 0.00 | 58 | 1011.6 |
| 20260508183022 | 28 | 88 | 19.3 | 38.6 | 0.00 | 0.00 | 0.00 | 59 | 1011.7 |
| 20260508181527 | 28 | 73 | 22.5 | 33.8 | 0.00 | 0.00 | 0.00 | 59 | 1011.9 |
| 20260508180020 | 28 | 93 | 22.5 | 33.8 | 0.00 | 0.00 | 0.00 | 59 | 1012.0 |
| 20260508174520 | 28 | 135 | 17.7 | 29.0 | 0.00 | 0.00 | 0.00 | 57 | 1012.1 |
| 20260508173017 | 30 | 161 | 6.4 | 17.7 | 0.00 | 0.00 | 0.00 | 50 | 1012.4 |
| 20260508171518 | 32 | 177 | 1.6 | 9.7 | 0.00 | 0.00 | 0.00 | 50 | 1012.6 |
| 20260508170012 | 32 | 200 | 6.4 | 9.7 | 0.00 | 0.00 | 0.00 | 49 | 1012.8 |
| 20260508164509 | 31 | 180 | 4.8 | 11.3 | 0.00 | 0.00 | 0.00 | 49 | 1012.9 |
| 20260508163013 | 31 | 215 | 3.2 | 8.0 | 0.00 | 0.00 | 0.00 | 49 | 1012.9 |
| 20260508161504 | 30 | 203 | 3.2 | 9.7 | 0.00 | 0.00 | 0.00 | 48 | 1012.9 |
| 20260508160001 | 30 | 182 | 1.6 | 6.4 | 0.00 | 0.00 | 0.00 | 46 | 1012.9 |
| 20260508154559 | 30 | 155 | 0.0 | 4.8 | 0.00 | 0.00 | 0.00 | 46 | 1013.0 |
| 20260508153106 | 29 | 163 | 0.0 | 3.2 | 0.00 | 0.00 | 0.00 | 45 | 1013.2 |
| 20260508151555 | 28 | 133 | 0.0 | 3.2 | 0.00 | 0.00 | 0.00 | 45 | 1013.1 |
| 20260508150051 | 28 | 140 | 0.0 | 4.8 | 0.00 | 0.00 | 0.00 | 44 | 1013.1 |
| 20260508144547 | 27 | 10 | 0.0 | 3.2 | 0.00 | 0.00 | 0.00 | 46 | 1012.9 |
| 20260508143102 | 25 | 325 | 4.8 | 8.0 | 0.00 | 0.00 | 0.00 | 50 | 1012.9 |
| 20260508141540 | 23 | 340 | 6.4 | 11.3 | 0.00 | 0.00 | 0.00 | 58 | 1012.8 |
| 20260508140034 | 22 | 322 | 8.0 | 14.5 | 0.00 | 0.00 | 0.00 | 66 | 1012.7 |
| 20260508134536 | 21 | 320 | 9.7 | 12.9 | 0.00 | 0.00 | 0.00 | 72 | 1012.7 |
| 20260508133030 | 20 | 318 | 8.0 | 16.1 | 0.00 | 0.00 | 0.00 | 76 | 1012.6 |
| 20260508131529 | 19 | 298 | 9.7 | 14.5 | 0.00 | 0.00 | 0.00 | 81 | 1012.4 |
| 20260508130025 | 18 | 290 | 6.4 | 11.3 | 0.00 | 0.00 | 0.00 | 81 | 1012.3 |
| 20260508124529 | 18 | 304 | 8.0 | 11.3 | 0.00 | 0.00 | 0.00 | 81 | 1012.2 |
| 20260508123027 | 18 | 294 | 9.7 | 12.9 | 0.00 | 0.00 | 0.00 | 80 | 1012.2 |
| 20260508121522 | 18 | 305 | 8.0 | 11.3 | 0.00 | 0.00 | 0.00 | 80 | 1012.2 |
| 20260508120021 | 18 | 308 | 8.0 | 11.3 | 0.00 | 0.00 | 0.00 | 81 | 1012.0 |
| 20260508114520 | 18 | 319 | 8.0 | 9.7 | 0.00 | 0.00 | 0.00 | 81 | 1011.8 |
| 20260508113019 | 19 | 333 | 4.8 | 9.7 | 0.00 | 0.00 | 0.00 | 81 | 1011.8 |
| 20260508111518 | 19 | 317 | 6.4 | 11.3 | 0.00 | 0.00 | 0.00 | 80 | 1011.7 |
| 20260508104554 | 20 | 311 | 8.0 | 12.9 | 0.00 | 0.00 | 0.00 | 80 | 1011.5 |
| 20260508103057 | 20 | 309 | 8.0 | 12.9 | 0.00 | 0.00 | 0.00 | 80 | 1011.5 |
| 20260508101554 | 20 | 310 | 8.0 | 11.3 | 0.00 | 0.00 | 0.00 | 80 | 1011.7 |
| 20260508100109 | 20 | 300 | 8.0 | 11.3 | 0.00 | 0.00 | 0.00 | 79 | 1011.7 |
| 20260508094549 | 20 | 321 | 6.4 | 9.7 | 0.00 | 0.00 | 0.00 | 79 | 1011.7 |
| 20260508093048 | 20 | 324 | 6.4 | 9.7 | 0.00 | 0.00 | 0.00 | 79 | 1011.7 |
| 20260508091606 | 20 | 324 | 6.4 | 11.3 | 0.00 | 0.00 | 0.00 | 80 | 1011.8 |
| 20260508090049 | 20 | 315 | 4.8 | 8.0 | 0.00 | 0.00 | 0.00 | 81 | 1011.8 |
| 20260508084542 | 20 | 312 | 4.8 | 9.7 | 0.00 | 0.00 | 0.00 | 81 | 1012.0 |
| 20260508083040 | 20 | 310 | 6.4 | 11.3 | 0.00 | 0.00 | 0.00 | 80 | 1012.0 |
| 20260508081553 | 21 | 317 | 8.0 | 11.3 | 0.00 | 0.00 | 0.00 | 80 | 1012.1 |
| 20260508080035 | 21 | 317 | 6.4 | 9.7 | 0.00 | 0.00 | 0.00 | 81 | 1012.3 |
| 20260508074536 | 21 | 325 | 6.4 | 11.3 | 0.00 | 0.00 | 0.00 | 81 | 1012.5 |
| 20260508073036 | 21 | 315 | 6.4 | 9.7 | 0.00 | 0.00 | 0.00 | 81 | 1012.5 |
| 20260508071535 | 21 | 308 | 4.8 | 6.4 | 0.00 | 0.00 | 0.00 | 81 | 1012.7 |
| 20260508070027 | 21 | 302 | 3.2 | 6.4 | 0.00 | 0.00 | 0.00 | 81 | 1012.9 |
| 20260508064528 | 21 | 313 | 4.8 | 8.0 | 0.00 | 0.00 | 0.00 | 81 | 1013.0 |
| 20260508063025 | 21 | 313 | 4.8 | 8.0 | 0.00 | 0.00 | 0.00 | 82 | 1013.1 |
| 20260508061524 | 22 | 323 | 6.4 | 8.0 | 0.00 | 0.00 | 0.00 | 81 | 1013.2 |
| 20260508060027 | 22 | 303 | 4.8 | 8.0 | 0.00 | 0.00 | 0.00 | 81 | 1013.2 |